Tracking 18987 objects as of 25-Feb-2018
HD Live streaming from Space Station
objects crossing your sky now

FENGYUN 1C DEB

Track FENGYUN 1C DEB now!
10-day predictions


NORAD ID: 32154
Int'l Code: 1999-025CSY
Perigee: 535.8 km
Apogee: 612.1 km
Inclination: 99.0 °
Period: 96.0 minutes
Semi major axis: 6944 km
RCS: 0.0067 m2 (small)
Launch date: May 10, 1999
Source: People's Republic of China (PRC)
Launch site: Taiyaun Space Center, China (TSC)

Note: This is SATELLITE DEBRIS
aabbcc
Your satellite tracking list
Your tracking list is empty




NASA's NSSDC Master Catalog

Two Line Element Set (TLE):
1 32154U 99025CSY 18054.55303576 +.00007561 +00000-0 +59455-3 0  9992
2 32154 099.0356 087.2908 0054960 359.9281 000.1921 15.00031025251248
Source of the keplerian elements: AFSPC